Tracking 21473 objects as of 20-Sep-2020
HD Live streaming from Space Station
objects crossing your sky now

AQT-D

Track AQT-D now!
10-day predictions
AQT-D is classified as:


NORAD ID: 44791
Int'l Code: 1998-067QU
Perigee: 408.7 km
Apogee: 417.8 km
Inclination: 51.6 °
Period: 92.7 minutes
Semi major axis: 6784 km
RCS: Unknown
Launch date: November 20, 1998
Source: Japan (JPN)
Launch site: TYURATAM MISSILE AND SPACE COMPLEX (TTMTR)

Uplink (MHz):
Downlink (MHz):
Beacon (MHz):
Mode:
Call sign:
Status: Unknown

aabbcc
Your satellite tracking list
Your tracking list is empty




NASA's NSSDC Master Catalog

Two Line Element Set (TLE):
1 44791U 98067QW  20264.47717476  .00004211  00000-0  72055-4 0  9993
2 44791  51.6423 230.8782 0006684 351.8820   8.2061 15.53636662 47392
Source of the keplerian elements: AFSPC